Flag for Sweden Weather past 2 weeks in Borås, Sweden

Now
54 °F

Partly cloudy.


Feels Like: 51 °F
Forecast: 51 / 62 °F
Wind: 8 mph from Southwest

Location: Gothenburg / Landvetter

Current Time: Sep 2, 2015 at 6:45:51 AM

Latest Report: Sep 2, 2015 at 5:50 AM


Visibility: N/A

Pressure: 29.65 "Hg

Humidity: 100%

Dew point: 54 °F

Location of BoråsLocation

Historic Weather in Borås — Graph

°F

Borås temperature yesterday

Maximum temperature yesterday: 59 °F (at 4:50 PM)
Minimum temperature yesterday: 55 °F (at 12:20 AM)
Average temperature yesterday: 57 °F

Past Weeks' High & Low Weather Summary

 TemperatureHumidityPressure
High77 °F (Aug 23, 3:50 PM)100% (Aug 25, 11:20 AM)30.39 "Hg (Aug 25, 11:20 AM)
Low52 °F (Aug 20, 3:20 AM)33% (Aug 21, 4:50 PM)29.59 "Hg (Sep 1, 10:50 PM)
Average61 °F75%30.02 "Hg
* Reported Aug 18 5:20 AM — Sep 2 5:20 AM, Borås, Weather by CustomWeather, © 2015

Note: Actual official high and low records may vary slightly from our data, if they occured in-between our weather recording intervals... More about our weather records

Advertising

Borås weather history for previous 24 hours

 ConditionsComfort  
Time TempWeatherWind HumidityBarometerVisibility
5:20 AM
Wed, Sep 2
55 °FDrizzle. Mostly cloudy.10 mph94%29.65 "HgN/A
4:50 AM55 °FMostly cloudy.8 mph94%29.65 "HgN/A
4:20 AM55 °FOvercast.12 mph94%29.62 "HgN/A
3:50 AM55 °FDrizzle. Mostly cloudy.15 mph100%29.62 "Hg4 mi
3:20 AM57 °FOvercast.13 mph94%29.62 "Hg6 mi
2:50 AM57 °FLight rain. Partly cloudy.12 mph94%29.62 "HgN/A
2:20 AM57 °FOvercast.13 mph94%29.62 "HgN/A
1:50 AM57 °FMostly cloudy.12 mph100%29.62 "HgN/A
1:20 AM57 °FPartly cloudy.12 mph100%29.62 "HgN/A
12:50 AM59 °FDrizzle. Mostly cloudy.12 mph94%29.62 "Hg3 mi
11:20 PM
Tue, Sep 1
59 °FPassing clouds.7 mph94%29.59 "Hg6 mi
10:50 PM59 °FLight rain. Fog.8 mph94%29.59 "Hg6 mi
10:20 PM59 °FFog.9 mph94%29.62 "Hg5 mi
9:50 PM59 °FPassing clouds.8 mph94%29.62 "HgN/A
9:20 PM57 °FFog.8 mph100%29.62 "Hg4 mi
8:50 PM57 °FFog.10 mph100%29.62 "Hg3 mi
8:20 PM57 °FFog.9 mph100%29.62 "Hg1 mi
7:50 PM57 °FDrizzle. Fog.9 mph100%29.62 "Hg2 mi
7:20 PM59 °FPartly sunny.9 mph94%29.65 "HgN/A
6:50 PM57 °FPartly sunny.9 mph94%29.65 "HgN/A
6:20 PM59 °FPartly sunny.12 mph88%29.65 "HgN/A
5:50 PM59 °FPartly sunny.12 mph88%29.65 "HgN/A
5:20 PM59 °FPartly sunny.12 mph88%29.65 "HgN/A
4:50 PM59 °FPartly sunny.9 mph88%29.65 "HgN/A
4:20 PM57 °FPartly sunny.9 mph94%29.65 "HgN/A
3:50 PM57 °FPartly sunny.9 mph94%29.68 "HgN/A
3:20 PM57 °FPartly sunny.9 mph94%29.68 "HgN/A
2:50 PM57 °FPartly sunny.10 mph94%29.68 "HgN/A
2:20 PM57 °FPartly sunny.9 mph94%29.65 "HgN/A
1:50 PM57 °FPartly sunny.9 mph94%29.68 "HgN/A
1:20 PM57 °FLow clouds.12 mph94%29.68 "HgN/A
12:50 PM57 °FLow clouds.13 mph94%29.68 "HgN/A
12:20 PM57 °FLow clouds.10 mph94%29.68 "HgN/A
11:50 AM57 °FLow clouds.10 mph94%29.68 "HgN/A
11:20 AM55 °FFog.10 mph100%29.68 "Hg4 mi
10:50 AM55 °FDrizzle. Mostly cloudy.10 mph94%29.68 "Hg3 mi
10:20 AM55 °FFog.10 mph94%29.68 "Hg3 mi
9:50 AM55 °FFog.10 mph94%29.68 "Hg5 mi
9:20 AM55 °FDrizzle. Broken clouds.12 mph94%29.68 "Hg6 mi
8:50 AM55 °FPartly sunny.9 mph94%29.68 "HgN/A
8:20 AM55 °FLow clouds.9 mph94%29.68 "HgN/A
7:50 AM55 °FBroken clouds.9 mph94%29.68 "HgN/A
7:20 AM55 °FPartly sunny.10 mph94%29.71 "HgN/A
6:50 AM55 °FOvercast.9 mph94%29.71 "HgN/A
Weather by CustomWeather, © 2015

See weather overviewHow to use our weather pages